Miscellaneous Local Product
Issued by NWS Hastings, NE

Home | Current Version | Previous Version | Graphics & Text | Print | Product List | Glossary On
Versions: 1 2 3 4 5 6 7 8 9 10 11 12 13 14 15 16 17 18 19 20 21 22 23 24 25 26 27 28 29 30 31 32 33 34 35 36 37 38 39 40 41 42 43 44 45 46 47 48 49 50
000
AXUS43 KGID 041202
MISGRI

GID CWA HOURLY WEATHER ROUNDUP
NATIONAL WEATHER SERVICE HASTINGS NE
700 AM CDT TUE AUG 04 2015

NOTE: "FAIR" INDICATES FEW OR NO CLOUDS BELOW 12,000 FEET WITH NO
SIGNIFICANT WEATHER AND/OR OBSTRUCTIONS TO VISIBILITY.

...SOUTH CENTRAL NEBRASKA...

CITY           SKY/WX    TMP DP  RH WIND       PRES   REMARKS
GRAND ISLAND   CLOUDY    68  63  84 E15       30.01R
HASTINGS       CLOUDY    67  65  93 NE12      30.00R
KEARNEY        CLOUDY    66  64  94 NE14      30.00R
ORD            CLOUDY    68  59  73 NE7       30.02R
YORK           CLOUDY    68  66  94 N8        30.03R
AURORA         CLOUDY    68  66  91 NE13      30.02R
LEXINGTON      CLOUDY    70  68  95 NE12      29.98R FOG
HOLDREGE       FOG       67  66  96 E8        29.97R VSB 1/2
HEBRON         MOCLDY    69  67  92 CALM      29.95R

...NEBRASKA PANHANDLE...

CITY           SKY/WX    TMP DP  RH WIND       PRES   REMARKS
CHADRON        PTCLDY    57  54  89 W9        29.95R
ALLIANCE       PTCLDY    56  52  86 E6        29.97R
SCOTTSBLUFF    PTCLDY    58  54  86 CALM      29.97R
SIDNEY         PTCLDY    57  51  80 W3        30.00R

...WESTERN AND NORTH CENTRAL NEBRASKA...

CITY           SKY/WX    TMP DP  RH WIND       PRES   REMARKS
VALENTINE      NOT AVBL
AINSWORTH      CLOUDY    64  59  83 E9G20     30.05R
ONEILL         CLOUDY    64  63  98 W8        30.07R
BROKEN BOW     CLOUDY    69  63  81 E14G23    30.01R
IMPERIAL       FOG       67  66  97 E6        29.96R VSB 1/2
NORTH PLATTE   CLOUDY    67  66  97 E8        29.99R FOG
MCCOOK         FOG       67  67 100 CALM      29.94R VSB 1/4

...EASTERN NEBRASKA...

CITY           SKY/WX    TMP DP  RH WIND       PRES   REMARKS
NORFOLK        LGT RAIN  65  64  97 NE6       29.99F
SO SIOUX CITY  CLOUDY    67  60  78 E5        30.01R
TEKAMAH        LGT RAIN  67  64  90 E3        30.01S
COLUMBUS       CLOUDY    64  57  77 CALM      30.04R
ALBION         CLOUDY    63  62  94 NW9       30.01R
OMAHA EPPLEY   TSTM      68  65  90 N5        30.02R
OFFUTT AFB     TSTM      67  63  87 E7        30.00R
MILLARD        CLOUDY    69  64  85 CALM      29.99F
LINCOLN        CLOUDY    71  63  75 SE9       29.97F
NEBRASKA CITY  MOCLDY    67  65  94 N6        29.98R
BEATRICE       CLOUDY    70  67  93 NE6       29.97R
FALLS CITY     CLEAR     69  67  93 SE6       29.94F

...NORTHERN KANSAS...

CITY           SKY/WX    TMP DP  RH WIND       PRES   REMARKS
GOODLAND       CLEAR     66  61  84 SW7       29.97R
HILL CITY      MOCLDY    70  65  84 CALM      29.93R
NORTON         SUNNY     68  64  88 CALM      29.94R
PHILLIPSBURG   CLEAR     72  72 100 NE6       29.93R FOG
SMITH CENTER   CLEAR     70  66  88 E8        29.95R
HAYS           MOCLDY    70  61  73 S8        29.93S
RUSSELL        MOCLDY    71  68  90 S8        29.92R
CONCORDIA      MOCLDY    70  70 100 E3        29.96R FOG
SALINA         CLOUDY    72  67  84 S5        29.93R
TOPEKA         CLOUDY    72  71  97 SE5       29.97R



USA.gov is the U.S. government's official web portal to all federal, state and local government web resources and services.